This demonstration page uses our WeatherBlox Daily Observations layout. Learn more.

Left ArrowRight Arrow

Hourly Observations for December 8, 2019

Temp ( °F °C ) Dew Point ( °F °C ) Humidity (%) Winds ( mph kmh ) Pressure ( in mb ) Visibility ( mi km ) Precip ( " mm )
12:52 am 00:52 Mostly Cloudy 42 5.6 27 -2.8 55 55 S 12 19 29.85 1011 10 16 0.00 0.00
1:52 am 01:52 Mostly Clear 41 5 27 -2.8 57 57 S 8 13 29.84 1011 10 16 0.00 0.00
2:52 am 02:52 Mostly Cloudy 36 2.2 27 -2.8 70 70 SE 10 17 29.84 1010 10 16 0.00 0.00
3:52 am 03:52 Mostly Cloudy 35 1.7 27 -2.8 72 72 ESE 8 13 29.84 1010 10 16 0.00 0.00
4:52 am 04:52 Mostly Clear 36 2.2 27 -2.8 70 70 SSE 7 11 29.81 1010 10 16 0.00 0.00
5:52 am 05:52 Cloudy 35 1.7 28 -2.2 76 76 S 8 13 29.82 1010 10 16 0.00 0.00
6:52 am 06:52 Mostly Cloudy 32 0 27 -2.8 82 82 SSE 8 13 29.81 1009 10 16 0.00 0.00
7:52 am 07:52 Cloudy 32 0 27 -2.8 82 82 SE 8 13 29.81 1009 10 16 0.00 0.00
8:52 am 08:52 Mostly Cloudy 36 2.2 29 -1.7 76 76 SSE 3 6 29.82 1010 10 16 0.00 0.00
9:52 am 09:52 Mostly Cloudy 38 3.3 29 -1.7 70 70 SSE 7 11 29.81 1010 10 16 0.00 0.00
10:52 am 10:52 Cloudy 39 3.9 29 -1.7 67 67 S 3 6 29.81 1010 10 16 0.00 0.00
11:52 am 11:52 Mostly Cloudy 42 5.6 30 -1.1 62 62 Calm 29.78 1009 10 16 0.00 0.00
12:52 pm 12:52 Mostly Cloudy 44 6.7 31 -0.6 60 60 S 5 7 29.75 1007 10 16 0.00 0.00
1:52 pm 13:52 Mostly Cloudy 46 7.8 32 0 58 58 S 3 6 29.71 1006 10 16 0.00 0.00
2:52 pm 14:52 Mostly Cloudy 48 8.9 32 0 54 54 Calm 29.71 1006 10 16 0.00 0.00
3:52 pm 15:52 Mostly Cloudy 46 7.8 33 0.6 61 61 Calm 29.72 1006 10 16 0.00 0.00
4:52 pm 16:52 Mostly Cloudy 43 6.1 33 0.6 68 68 ESE 9 15 29.71 1006 10 16 0.00 0.00
5:52 pm 17:52 Cloudy 40 4.4 32 0 73 73 SE 7 11 29.71 1006 10 16 0.00 0.00
6:52 pm 18:52 Cloudy 40 4.4 33 0.6 77 77 SE 6 9 29.70 1006 10 16 0.00 0.00
7:52 pm 19:52 Cloudy 40 4.4 32 0 73 73 ESE 3 6 29.70 1006 10 16 0.00 0.00
8:52 pm 20:52 Cloudy 39 3.9 33 0.6 79 79 Calm 29.67 1005 10 16 0.00 0.00
9:52 pm 21:52 Cloudy 34 1.1 33 0.6 97 97 Calm 29.66 1005 10 16 0.00 0.00
10:52 pm 22:52 Cloudy 36 2.2 33 0.6 89 89 SE 3 6 29.63 1003 10 16 0.00 0.00
11:52 pm 23:52 Cloudy 38 3.3 34 1.1 86 86 WSW 5 7 29.62 1003 10 16 0.00 0.00

Powered by AerisWeather